sat.trackr.live / text

‹ back to catalog

STARLINK-32129

NORAD 60157 · 2024-120Y

PAYLOAD ACTIVE UNKNOWN

§ Identity

Operator
Country
US
Launch date
2024-06-27
Launch site
AFETR
Launch vehicle
Mass (kg)
RCS (m²)

Purposes: comms

External: N2YO · Heavens-Above · Gunter

§ Orbital elements

Epoch: 2026-09-21T21:15:49.967136Z

Period
93.85 min
Inclination
53.1591°
Eccentricity
0.0001364
Mean motion
15.34390013 rev/d
Perigee alt
461.8 km
Apogee alt
463.7 km
Semi-major
6,840.9 km
B*
-7.8287e-6
RAAN
125.1414°
Arg perigee
84.5009°
Mean anomaly
275.6149°
Rev number
12,654

§ Raw data

STARLINK-321291 60157U 24120Y   26264.88599499 -.00000641  00000+0 -78287-5 0  99982 60157  53.1591 125.1414 0001364  84.5009 275.6149 15.34390013126544

JSON: /api/v1/satellites/60157 · /tle

For live sub-satellite position, see the globe view (requires WebGL).

§ Visibility from observer

Set your observer location to see the next 7 days of passes ≥ 10°. The values pass through the URL so the page stays shareable.

No JS? Fill the form by hand. The geolocation button needs JavaScript.